Regional Weather Roundup
Issued by NWS

Home | Current Version | Previous Version | Graphics & Text | Print | Product List | Glossary On
Versions: 1 2 3 4 5 6 7 8 9 10 11 12 13 14 15 16 17 18 19 20 21 22 23 24 25 26 27 28 29 30 31 32 33 34 35 36 37 38 39 40 41 42 43 44 45 46 47 48 49
000
ASUS45 KSLC 272210
RWRUT

UTAH REGIONAL WEATHER ROUNDUP
NATIONAL WEATHER SERVICE SALT LAKE CITY UT
400 PM MDT THU AUG 27 2015

UTZ001>011-023>025-272300-

NORTHERN UTAH

CITY           SKY/WX    TMP DP  RH WIND       PRES   REMARKS
BRIGHAM CITY     N/A     85  48  28 SW3       30.18F
HILL AFB         N/A     83  51  33 VRB5      30.22F
LOGAN            N/A     84  52  33 VRB3      30.18F
OGDEN            N/A     85  51  31 VRB6      30.19F
PROVO AIRPORT  NOT AVBL
SALT LAKE CITY   N/A     87  51  28 NW10G18   30.17F
VERNAL           N/A     82  49  31 S7        30.18F
WENDOVER         N/A     88  45  22 SE10      30.17F
HEBER CITY       N/A     82  46  28 SW5       30.24F
WEST JORDAN    SUNNY     84  52  32 NW8       30.20F

$$

UTZ012>022-026-027-272300-

SOUTHERN/CENTRAL UTAH

CITY           SKY/WX    TMP DP  RH WIND       PRES   REMARKS
BLANDING         N/A     82  52  35 S6        30.31F
BRYCE CANYON   PTSUNNY   74  47  38 SE12      30.40F
CEDAR CITY       N/A     83  42  23 NW8       30.25F
DELTA            N/A     87  43  21 NW5       30.20F
HANKSVILLE       N/A     88  45  22 N5        30.16F
MILFORD          N/A     86  42  21 N9        30.20F
MOAB/CYNLANDS    N/A     86  54  33 NW7       30.14F
PRICE            N/A     86  40  19 NW14G28   30.23F
ST GEORGE        N/A     97  54  23 N3        30.06F HX  94
KANAB            N/A     84  57  39 SE6       30.26F

$$

REGIONAL REPORTS     COLORADO/ARIZONA

CITY           SKY/WX    TMP DP  RH WIND       PRES   REMARKS
CRAIG, CO        N/A     73  59  61 S10       30.24F
GRAND JUNCTION   N/A     81  57  43 SW6       30.17F
RIFLE          LGT RAIN  72  59  63 W6        30.24F
MONTROSE         N/A     78  57  48 N7        30.26F
CORTEZ         LGT RAIN  78  55  44 NW6       30.24F
PAGE, AZ         N/A     88  50  27 VRB6      30.16F
GRAND CANYON     N/A     80  44  27 NW6G21    30.34F
KINGMAN          N/A     96  53  23 NW13      30.09F HX  93
FLAGSTAFF      CLOUDY    65  54  67 S3        30.40S THUNDER

$$

REGIONAL REPORTS    NEVADA/IDAHO/WYOMING

CITY           SKY/WX    TMP DP  RH WIND       PRES   REMARKS
LAS VEGAS, NV  PTSUNNY   98  54  22 N6        29.96F HX  96
ELY            CLOUDY    79  39  23 S10       30.31F
ELKO             N/A     88  32  13 MISG      30.21F
POCATELLO, ID    N/A     90  39  16 SW15G23   30.16F
BURLEY           N/A     87  40  19 W12G18    30.15F
EVANSTON, WY     N/A     77  36  22 N10G17    30.34F
ROCK SPRINGS     N/A     75  40  28 NW13G22   30.26F
KEMMERER         N/A    N/A N/A N/A NW15G32   30.33F

$$


USA.gov is the U.S. government's official web portal to all federal, state and local government web resources and services.